Location: Home
(42.5358°N, 72.7383°W)
Time: 10:14:57
(UTC-05:00)

Courier 1B - Pass Details

Date: 09 December 2021
Orbit: 962 x 1209 km, 28.3° (Epoch: 21 January)

Event Time Altitude Azimuth Distance (km) Brightness Sun altitude
Rises 16:59:10 0° 253° (WSW) 4,082 13.1 -7.6°
Reaches altitude 10° 17:02:36 10° 240° (WSW) 3,093 11.8 -8.2°
Maximum altitude 17:08:33 25° 189° (S) 2,124 9.7 -9.2°
Drops below altitude 10° 17:14:17 10° 137° (SE) 2,964 9.8 -10.2°
Sets 17:17:30 0° 125° (SE) 3,878 10.3 -10.7°
